Oxnard, CA

9:24 PM PDT on September 19, 2017 (GMT -0700)
Oxnard

Weather History for KOXR - December, 2013

Change the Weather History Date:

Thursday, December 5, 2013

  Actual Average Record
Temperature  
Mean Temperature 49 °F -  
Max Temperature 57 °F 66 °F 84 °F (1962)
Min Temperature 41 °F 45 °F 34 °F (1948)
Degree Days  
Heating Degree Days 16    
Moisture  
Dew Point 27 °F    
Average Humidity 45    
Maximum Humidity 63    
Minimum Humidity 27    
Precipitation  
Precipitation 0.00 in - - ()
Sea Level Pressure  
Sea Level Pressure 30.02 in    
Wind  
Wind Speed 7 mph (NNE)    
Max Wind Speed 15 mph    
Max Gust Speed -    
Visibility 10 miles    
Events      
Averages and records for this station are not official NWS values.
T = Trace of Precipitation, MM = Missing Value Source: NWS Daily Summary

Daily Weather History Graph

Daily Weather History Graph

Search for Another Location

Airport or City:

Trip Planner

Search our weather history database for the weather conditions in past years. The results will help you decide how hot, cold, wet, or windy it might be!

Date:

Astronomy

Dec. 05, 2013 Rise Set
Actual Time 6:48 AM PST 4:46 PM PST
Civil Twilight 6:20 AM PST 5:14 PM PST
Nautical Twilight 5:49 AM PST 5:45 PM PST
Astronomical Twilight 5:19 AM PST 6:16 PM PST
Moon 9:16 AM PST (12/5) 8:08 PM PST (12/5)
Length of Visible Light 10h 53m
Length of Day
9h 58m
Waxing Crescent, 11% of the Moon is Illuminated
Dec 5
Waxing Crescent
Dec 9
First Quarter
Dec 17
Full
Dec 25
Last Quarter
Jan 1
New

Hourly Weather History & Observations

Time (PST) Temp. Windchill Dew Point Humidity Pressure Visibility Wind Dir Wind Speed Gust Speed Precip Events Conditions
12:51 AM 44.1 °F 39.5 °F 21.9 °F 42% 29.95 in 10.0 mi NE 8.1 mph - N/A   Clear
1:51 AM 43.0 °F 38.2 °F 21.9 °F 43% 29.96 in 10.0 mi NE 8.1 mph - N/A   Clear
2:51 AM 42.1 °F 37.1 °F 23.0 °F 47% 29.96 in 10.0 mi NE 8.1 mph - N/A   Clear
3:51 AM 42.1 °F 37.1 °F 23.0 °F 47% 29.96 in 10.0 mi NE 8.1 mph - N/A   Clear
4:51 AM 41.0 °F 36.4 °F 23.0 °F 49% 29.96 in 10.0 mi NE 6.9 mph - N/A   Clear
5:51 AM 42.1 °F 36.6 °F 21.9 °F 45% 29.98 in 10.0 mi NE 9.2 mph - N/A   Clear
6:51 AM 42.1 °F 37.1 °F 21.9 °F 45% 30.00 in 10.0 mi NE 8.1 mph - N/A   Clear
7:51 AM 44.1 °F 39.0 °F 21.9 °F 42% 30.02 in 10.0 mi NE 9.2 mph - N/A   Clear
8:51 AM 48.0 °F - 23.0 °F 37% 30.04 in 10.0 mi NE 9.2 mph - N/A   Clear
9:51 AM 53.1 °F - 21.9 °F 30% 30.05 in 10.0 mi NE 4.6 mph - N/A   Clear
10:51 AM 57.0 °F - 23.0 °F 27% 30.04 in 10.0 mi ENE 5.8 mph - N/A   Clear
11:51 AM 57.0 °F - 28.9 °F 34% 30.03 in 10.0 mi Variable 3.5 mph - N/A   Clear
12:51 PM 57.0 °F - 30.0 °F 36% 30.01 in 10.0 mi West 9.2 mph - N/A   Clear
1:51 PM 57.0 °F - 34.0 °F 42% 30.01 in 10.0 mi West 15.0 mph - N/A   Clear
2:51 PM 55.9 °F - 34.0 °F 44% 30.01 in 10.0 mi West 11.5 mph - N/A   Clear
3:51 PM 55.0 °F - 28.9 °F 37% 30.01 in 10.0 mi West 11.5 mph - N/A   Clear
4:51 PM 51.1 °F - 32.0 °F 48% 30.02 in 10.0 mi West 4.6 mph - N/A   Clear
5:51 PM 52.0 °F - 28.0 °F 40% 30.03 in 10.0 mi Calm Calm - N/A   Clear
6:51 PM 48.0 °F - 30.9 °F 52% 30.04 in 10.0 mi NE 3.5 mph - N/A   Clear
7:51 PM 46.0 °F - 33.1 °F 61% 30.06 in 10.0 mi Calm Calm - N/A   Clear
8:51 PM 44.1 °F 41.5 °F 32.0 °F 63% 30.07 in 10.0 mi NE 4.6 mph - N/A   Clear
9:51 PM 44.1 °F 40.1 °F 30.9 °F 60% 30.08 in 10.0 mi NE 6.9 mph - N/A   Clear
10:51 PM 43.0 °F 40.3 °F 30.0 °F 60% 30.10 in 10.0 mi NE 4.6 mph - N/A   Clear
11:51 PM 43.0 °F 37.7 °F 26.1 °F 51% 30.10 in 10.0 mi NNE 9.2 mph - N/A   Clear